DW8131 Weather Reports


time (UTC)temp
C
wind
direction
speed
KPH
gust
KPH
rain 1hr
cm
rain 24hr
cm
rain mn
cm
humidity
%
barometer
mb
20260505173024 9 308 4.8 0.0 0.00 0.00 0.00 44 1010.8
20260505171530 10 281 6.4 0.0 0.00 0.00 0.00 47 1010.8
20260505170028 10 289 8.0 0.0 0.00 0.00 0.00 46 1011.0
20260505164521 10 323 6.4 0.0 0.00 0.00 0.00 43 1011.0
20260505163022 10 348 8.0 0.0 0.00 0.00 0.00 38 1010.9
20260505161521 10 343 8.0 0.0 0.00 0.00 0.00 45 1010.9
20260505153022 11 355 9.7 0.0 0.00 0.00 0.00 50 1011.0
20260505151516 11 301 12.9 0.0 0.00 0.00 0.00 49 1011.1
20260505124509 12 321 17.7 0.0 0.00 0.00 0.00 52 1011.1
20260505123007 13 338 16.1 0.0 0.00 0.00 0.00 51 1011.2
20260505121509 13 323 16.1 0.0 0.00 0.00 0.00 51 1011.4
20260505120005 13 277 14.5 0.0 0.00 0.00 0.00 48 1011.2
20260505114504 14 299 12.9 0.0 0.00 0.00 0.00 46 1011.1
20260505113003 14 306 12.9 0.0 0.00 0.00 0.00 45 1011.1
20260505111503 15 325 12.9 0.0 0.00 0.00 0.00 47 1011.1
20260505101559 16 333 17.7 0.0 0.00 0.00 0.00 42 1011.2
20260505100058 17 293 12.9 0.0 0.00 0.00 0.00 41 1011.0
20260505094556 17 291 11.3 0.0 0.00 0.00 0.00 43 1010.9
20260505093055 17 292 11.3 0.0 0.00 0.00 0.00 41 1010.9
20260505091556 16 314 14.5 0.0 0.00 0.00 0.00 41 1010.9
20260505090059 16 288 16.1 0.0 0.00 0.00 0.00 42 1011.0
20260505084553 17 298 12.9 0.0 0.00 0.00 0.00 43 1010.9
20260505083102 17 304 12.9 0.0 0.00 0.00 0.00 40 1010.7
20260505081554 17 272 12.9 0.0 0.00 0.00 0.00 41 1010.5
20260505080047 16 307 12.9 0.0 0.00 0.00 0.00 44 1010.3
20260505074546 16 246 11.3 0.0 0.00 0.00 0.00 45 1010.2
20260505073044 16 316 12.9 0.0 0.00 0.00 0.00 46 1010.1
20260505071542 15 313 11.3 0.0 0.00 0.00 0.00 48 1010.1
20260505070045 15 288 9.7 0.0 0.00 0.00 0.00 50 1010.1
20260505064551 14 355 11.3 0.0 0.00 0.00 0.00 51 1009.9
20260505063031 13 302 11.3 0.0 0.00 0.00 0.00 56 1009.9
20260505061536 13 350 11.3 0.0 0.00 0.00 0.00 57 1009.8
20260505060027 12 313 12.9 0.0 0.00 0.00 0.00 62 1009.6
20260505054518 11 347 11.3 0.0 0.00 0.00 0.00 66 1009.6
20260505053016 10 348 14.5 0.0 0.00 0.00 0.00 71 1009.8
20260505051513 8 298 12.9 0.0 0.00 0.00 0.00 75 1009.5
20260505041506 7 327 14.5 0.0 0.00 0.00 0.00 83 1009.2
20260505040008 7 309 16.1 0.0 0.00 0.00 0.00 83 1009.2
20260505034504 7 311 16.1 0.0 0.00 0.00 0.00 84 1009.2
20260505033001 -17 0.0 0.0 0.00 0.00 0.00 1009.2
20260505031606 -17 0.0 0.0 0.00 0.00 0.00 1009.1
20260505030053 -17 0.0 0.0 0.00 0.00 0.00 1009.2
20260505024549 -17 0.0 0.0 0.00 0.00 0.00 1009.3
20260505023047 -17 0.0 0.0 0.00 0.00 0.00 1009.2
20260505021546 8 284 19.3 0.0 0.00 0.00 0.00 86 1009.3
20260505020042 8 276 20.9 0.0 0.00 0.00 0.00 86 1009.4
20260505014543 8 271 22.5 0.0 0.00 0.00 0.00 86 1009.6
20260505013037 8 261 22.5 0.0 0.00 0.00 0.00 87 1009.3
20260505011536 7 360 22.5 0.0 0.00 0.00 0.00 87 1009.3
20260505010041 8 273 22.5 0.0 0.00 0.00 0.00 87 1009.4
20260505004532 8 261 22.5 0.0 0.00 0.00 0.00 87 1009.4
20260505003031 8 248 20.9 0.0 0.00 0.00 0.00 87 1009.6
20260505001536 8 259 20.9 0.0 0.00 0.00 0.00 87 1009.6
20260505000038 8 360 20.9 0.0 0.00 0.00 0.00 87 1009.4
20260504234526 8 278 22.5 0.0 0.00 0.00 0.00 87 1009.4
20260504233024 8 253 22.5 0.0 0.00 0.00 0.00 87 1009.6
20260504231528 8 266 22.5 0.0 0.00 0.00 0.00 86 1009.6
20260504230019 8 273 22.5 0.0 0.00 0.00 0.23 86 1009.6
20260504224522 8 360 22.5 0.0 0.00 0.00 0.23 86 1009.8
20260504223016 8 259 25.7 0.0 0.00 0.00 0.23 85 1009.7
20260504221515 8 263 24.1 0.0 0.00 0.00 0.23 86 1009.9
20260504220018 8 268 24.1 0.0 0.00 0.00 0.23 85 1010.0
20260504214511 8 265 22.5 0.0 0.00 0.00 0.23 86 1010.0
20260504213011 8 258 24.1 0.0 0.00 0.00 0.23 85 1010.1
20260504211512 8 288 22.5 0.0 0.00 0.00 0.23 84 1010.1
20260504210007 8 360 22.5 0.0 0.00 0.00 0.23 83 1010.0
20260504204504 8 273 22.5 0.0 0.00 0.00 0.23 83 1010.0
20260504203007 8 265 22.5 0.0 0.00 0.00 0.23 83 1009.9
20260504201502 8 360 22.5 0.0 0.00 0.00 0.23 82 1009.8
20260504194609 8 253 20.9 0.0 0.00 0.00 0.23 82 1009.6
20260504193055 9 271 19.3 0.0 0.00 0.00 0.23 82 1009.6
20260504191554 9 234 20.9 0.0 0.00 0.00 0.23 81 1009.6
20260504190117 10 254 19.3 0.0 0.00 0.00 0.23 81 1009.3
20260504184556 10 277 16.1 0.0 0.00 0.00 0.23 81 1009.3
20260504183051 10 263 17.7 0.0 0.00 0.00 0.23 80 1009.2
20260504181556 10 263 14.5 0.0 0.00 0.00 0.23 80 1009.3
20260504180137 11 279 14.5 0.0 0.00 0.00 0.23 79 1009.4
20260504174550 11 360 14.5 0.0 0.00 0.00 0.23 78 1009.2